Flag for U.S.A. Weather past 2 weeks in Bentonville, Arkansas, U.S.A.

Now
68 °F

Mostly cloudy.


Feels Like: 68 °F
Forecast: 74 / 85 °F
Wind: 10 mph from East

Location: Bentonville Weather Observing Station

Current Time: Sep 2, 2014 at 4:37:05 AM

Latest Report: Sep 2, 2014 at 4:15 AM


Visibility: 10 mi

Pressure: 29.98 "Hg

Humidity: 88%

Dew point: 64 °F

Location of BentonvilleLocation

Historic Weather in Bentonville — Graph

°F

Bentonville temperature yesterday

Maximum temperature yesterday: 88 °F (at 2:35 PM)
Minimum temperature yesterday: 64 °F (at 6:15 AM)
Average temperature yesterday: 77 °F

Past Weeks' High & Low Weather Summary

 TemperatureHumidityPressure
High99 °F (Aug 25, 5:15 PM)94% (Aug 18, 6:55 AM)30.17 "Hg (Aug 18, 6:55 AM)
Low64 °F (Sep 1, 6:15 AM)29% (Aug 25, 5:15 PM)29.87 "Hg (Aug 19, 1:55 AM)
Average81 °F66%30.00 "Hg
* Reported Aug 18 3:15 AM — Sep 2 3:35 AM, Bentonville, Weather by CustomWeather, © 2014

Note: Actual official high and low records may vary slightly from our data, if they occured in-between our weather recording intervals... More about our weather records

Advertising

Bentonville weather history for previous 24 hours

 ConditionsComfort  
Time TempWeatherWind HumidityBarometerVisibility
3:35 AM
Sep 2
72 °FThundershowers. Mostly cloudy.13 mph83%30.01 "Hg3 mi
3:15 AM73 °FThundershowers. Passing clouds.14 mph89%29.99 "Hg10 mi
2:55 AM75 °FClear.9 mph83%29.95 "Hg10 mi
2:35 AM75 °FClear.6 mph83%29.94 "Hg10 mi
2:15 AM75 °FClear.No wind83%29.94 "Hg10 mi
1:55 AM75 °FClear.7 mph83%29.93 "Hg10 mi
1:35 AM75 °FClear.3 mph83%29.94 "Hg10 mi
1:15 AM75 °FClear.7 mph83%29.93 "Hg10 mi
12:55 AM77 °FClear.8 mph79%29.93 "Hg7 mi
12:35 AM77 °FPassing clouds.8 mph79%29.96 "Hg10 mi
12:15 AM77 °FPassing clouds.6 mph79%30.00 "Hg10 mi
11:55 PM
Sep 1
79 °FPassing clouds.No wind74%30.02 "Hg10 mi
11:35 PM77 °FClear.5 mph79%29.99 "Hg10 mi
11:15 PM79 °FClear.7 mph74%29.96 "Hg10 mi
10:55 PM79 °FClear.7 mph74%29.93 "Hg10 mi
10:35 PM77 °FClear.7 mph74%29.92 "Hg10 mi
10:15 PM79 °FClear.3 mph70%29.95 "Hg10 mi
9:55 PM79 °FClear.6 mph70%29.93 "Hg10 mi
9:35 PM79 °FClear.6 mph70%29.91 "Hg10 mi
9:15 PM81 °FClear.No wind66%29.91 "Hg10 mi
8:55 PM81 °FClear.7 mph66%29.89 "Hg10 mi
8:35 PM81 °FSunny.9 mph66%29.89 "Hg10 mi
8:15 PM82 °FSunny.8 mph62%29.90 "Hg10 mi
7:55 PM82 °FPassing clouds.7 mph66%29.90 "Hg10 mi
7:35 PM82 °FPassing clouds.8 mph66%29.88 "Hg10 mi
7:15 PM84 °FPartly sunny.9 mph62%29.89 "Hg10 mi
6:55 PM84 °FBroken clouds.12 mph62%29.89 "Hg10 mi
6:35 PM86 °FPassing clouds.13 mph59%29.90 "Hg10 mi
6:15 PM88 °FPassing clouds.14 mph55%29.90 "Hg10 mi
5:55 PM88 °FPartly sunny.13 mph55%29.90 "Hg10 mi
5:35 PM88 °FScattered clouds.12 mph55%29.90 "Hg10 mi
5:15 PM88 °FSunny.13 mph55%29.90 "Hg10 mi
4:55 PM88 °FScattered clouds.17 mph55%29.90 "Hg10 mi
4:35 PM88 °FMostly cloudy.14 mph55%29.90 "Hg10 mi
4:15 PM86 °FScattered clouds.14 mph59%29.91 "Hg10 mi
3:55 PM88 °FPassing clouds.14 mph55%29.91 "Hg10 mi
3:35 PM88 °FScattered clouds.13 mph59%29.91 "Hg10 mi
3:15 PM88 °FSunny.13 mph55%29.92 "Hg10 mi
2:55 PM88 °FSunny.10 mph55%29.93 "Hg10 mi
2:35 PM88 °FPassing clouds.15 mph55%29.93 "Hg10 mi
2:15 PM86 °FScattered clouds.15 mph59%29.94 "Hg10 mi
1:55 PM84 °FSunny.12 mph66%29.94 "Hg10 mi
1:35 PM81 °FSunny.15 mph70%29.95 "Hg10 mi
1:15 PM79 °FSunny.12 mph70%29.96 "Hg10 mi
12:55 PM77 °FSunny.14 mph69%29.97 "Hg10 mi
12:35 PM75 °FScattered clouds.14 mph69%29.99 "Hg10 mi
12:15 PM73 °FPartly sunny.16 mph74%30.00 "Hg10 mi
11:55 AM72 °FOvercast.14 mph78%30.01 "Hg10 mi
11:35 AM68 °FOvercast.18 mph83%30.02 "Hg10 mi
11:15 AM66 °FOvercast.17 mph88%30.04 "Hg10 mi
10:55 AM66 °FOvercast.12 mph88%30.05 "Hg10 mi
10:35 AM66 °FOvercast.10 mph88%30.05 "Hg9 mi
10:15 AM66 °FOvercast.8 mph88%30.07 "Hg7 mi
9:55 AM66 °FOvercast.9 mph88%30.06 "Hg10 mi
9:35 AM64 °FOvercast.7 mph94%30.06 "Hg10 mi
9:15 AM64 °FMostly cloudy.8 mph94%30.06 "Hg10 mi
8:55 AM64 °FOvercast.12 mph94%30.05 "Hg7 mi
8:35 AM64 °FThundershowers. Overcast.6 mph94%30.06 "Hg5 mi
7:55 AM64 °FOvercast.12 mph94%30.03 "Hg10 mi
7:35 AM64 °FOvercast.12 mph94%30.03 "Hg10 mi
6:55 AM64 °FOvercast.12 mph88%30.03 "Hg10 mi
6:35 AM64 °FPartly cloudy.14 mph88%30.03 "Hg10 mi
6:15 AM64 °FPartly cloudy.15 mph88%30.03 "Hg10 mi
5:55 AM66 °FMostly cloudy.20 mph83%30.03 "Hg5 mi
5:35 AM73 °FMostly cloudy.18 mph69%30.02 "Hg10 mi
5:15 AM75 °FMostly cloudy.3 mph83%29.98 "Hg10 mi
4:55 AM75 °FPassing clouds.5 mph83%29.98 "Hg10 mi
4:35 AM75 °FPassing clouds.6 mph83%29.94 "Hg10 mi
4:15 AM75 °FPassing clouds.9 mph83%29.91 "Hg10 mi
Weather by CustomWeather, © 2014

See weather overviewHow to use our weather pages